Location: Central Coast NSW, Australia
(33.2407°S, 151.4316°E)
Time: 13:28:28
(UTC+10:00)

LightSail 2 - Visible Passes

Search period start: 18 August 2019 00:00
Search period end: 28 August 2019 00:00
Orbit: 702 x 731 km, 24.0° (Epoch: 16 August)

Date Brightness Start Highest point End Pass type
(mag) Time Alt. Az. Time Alt. Az. Time Alt. Az.
23 Aug 7.6 05:56:19 10° NNW 05:59:14 15° NNE 06:02:11 10° NE visible
24 Aug 7.7 05:00:42 10° N 05:02:27 12° NNE 05:04:12 10° NE visible
25 Aug 7.3 05:46:46 10° NNW 05:50:35 21° NNE 05:54:26 10° ENE visible
26 Aug 7.3 04:50:26 10° NNW 04:53:46 17° NNE 04:57:07 10° ENE visible
27 Aug 7.5 03:57:04 14° NNE 03:57:04 14° NNE 03:59:31 10° NE visible
27 Aug 6.9 05:37:41 10° NW 05:41:57 26° N 05:46:13 10° ENE visible
